Regional Weather Roundup
Issued by NWS

Home | Current Version | Previous Version | Text Only | Print | Product List | Glossary On
Versions: 1 2 3 4 5 6 7 8 9 10 11 12 13 14 15 16 17 18 19 20 21 22 23 24 25 26 27 28 29 30 31 32 33 34 35 36 37 38 39 40 41 42 43 44 45 46 47 48 49 50
000
ASUS43 KOAX 241010
RWRNE

WEATHER ROUNDUP FOR NEBRASKA
NATIONAL WEATHER SERVICE OMAHA NE
500 AM CDT THU JUL 24 2014

NOTES: SATELLITE DATA IS BEING USED TO AUGMENT CLOUD COVER ABOVE
       12000 FEET.
       "FAIR" INDICATES FEW OR NO CLOUDS BELOW 12,000 FEET WITH NO
       SIGNIFICANT WEATHER AND/OR OBSTRUCTIONS TO VISIBILITY.

  * THESE STATIONS DO NOT REPORT WEATHER SUCH AS RAIN...SNOW OR FOG.

NEZ001>004-019>022-054>056-241100-
NEBRASKA PANHANDLE

CITY           SKY/WX    TMP DP  RH WIND       PRES   REMARKS
SCOTTSBLUFF    PTCLDY    67  64  90 E12       30.02F
ALLIANCE       PTCLDY    65  63  93 SE13      30.04F
CHADRON        MOCLDY    72  65  78 S13G28    29.97F
KIMBALL        PTCLDY    66  61  84 W6        30.10R
SIDNEY         PTCLDY    70  64  81 S15       30.09F
$$

NEZ057>060-069>072-079>082-241100-
SOUTHWEST NEBRASKA

CITY           SKY/WX    TMP DP  RH WIND       PRES   REMARKS
NORTH PLATTE   CLEAR     67  60  78 SE8       30.08F
IMPERIAL       CLEAR     68  63  84 S13       30.07F
LEXINGTON      CLEAR     64  60  87 SE6       30.10F
MCCOOK         CLEAR     66  62  87 E7        30.10F
OGALLALA       PTCLDY    65  61  87 SE7       30.06F
$$

NEZ005>010-023>029-035>040-094-241100-
NORTH CENTRAL NEBRASKA

CITY           SKY/WX    TMP DP  RH WIND       PRES   REMARKS
VALENTINE      CLEAR     65  60  84 SE7       30.04F
AINSWORTH      CLEAR     65  58  79 SE14      30.07F
BROKEN BOW     CLEAR     65  60  84 S9        30.09F
O`NEILL        PTCLDY    65  58  78 SE10      30.09F
ORD            MOCLDY    63  59  87 SE3       30.09F
THEDFORD       CLEAR     67  60  76 S12       30.07F
$$

NEZ041-046>049-061>064-073>077-083>087-241100-
SOUTH CENTRAL NEBRASKA

CITY           SKY/WX    TMP DP  RH WIND       PRES   REMARKS
GRAND ISLAND   CLEAR     64  60  87 S6        30.11F
AURORA         CLEAR     62  61  96 SE5       30.11F
HASTINGS       CLEAR     67  59  75 MISG      30.11F
HEBRON         CLEAR     60  56  88 CALM      30.12R
HOLDREGE       CLEAR     64  60  88 SE9       30.10F
KEARNEY *      CLEAR     63  59  88 S7        30.11F
YORK           CLEAR     64  63  94 SE7       30.12S
$$

NEZ011>018-030>034-042>045-241100-
NORTHEAST NEBRASKA

CITY           SKY/WX    TMP DP  RH WIND       PRES   REMARKS
NORFOLK        CLEAR     64  59  83 SE8       30.11F
ALBION         PTCLDY    60  58  91 CALM      30.11S
BLAIR          CLEAR     64  59  81 SE7       30.13S
COLUMBUS *     CLEAR     61  55  82 E6        30.12F
FREMONT        CLEAR     67  61  79 SE6       30.13S
TEKAMAH        CLEAR     62  59  90 CALM      30.13S
WAYNE          PTCLDY    64  61  90 S7        30.13S
$$

NEZ050>053-065>068-078-088>093-241100-
SOUTHEAST NEBRASKA

CITY           SKY/WX    TMP DP  RH WIND       PRES   REMARKS
LINCOLN        PTCLDY    71  59  65 SE9       30.13S
OMAHA EPPLEY   PTCLDY    68  59  73 SE7       30.13F
BEATRICE       CLEAR     65  62  88 SE6       30.12S
FALLS CITY     CLEAR     63  60  90 SE5       30.12S
NEBRASKA CITY  CLEAR     64  60  87 SE6       30.13F
PLATTSMOUTH    CLEAR     65  59  80 E6        30.13S
$$

NEZ044-045-051>053-067-241100-
OMAHA AREA

CITY           SKY/WX    TMP DP  RH WIND       PRES   REMARKS
OMAHA EPPLEY   PTCLDY    68  59  73 SE7       30.13F
BLAIR          CLEAR     64  59  81 SE7       30.13S
FREMONT        CLEAR     67  61  79 SE6       30.13S
MILLARD        CLEAR     67  60  79 SE3       30.12F
OFFUTT AFB     CLEAR     62  62  98 CALM      30.13S
PLATTSMOUTH    CLEAR     65  59  80 E6        30.13S
WAHOO          FAIR      64  60  88 CALM      30.13R
$$


USA.gov is the U.S. government's official web portal to all federal, state and local government web resources and services.